Sable Island, Nova Scotia

1:10 PM ADT on April 21, 2018 (GMT -0300)
Sable Island

Weather History for CWSA - December, 2011

Change the Weather History Date:

Monday, December 12, 2011

  Actual Average Record
Temperature  
Mean Temperature 38 °F -  
Max Temperature 46 °F 39 °F 53 °F (2000)
Min Temperature 30 °F 29 °F 19 °F (2013)
Degree Days  
Heating Degree Days 27    
Moisture  
Dew Point 29 °F    
Average Humidity 65    
Maximum Humidity 81    
Minimum Humidity 46    
Precipitation  
Precipitation 0.02 in 0.19 in - ()
Sea Level Pressure  
Sea Level Pressure 30.55 in    
Wind  
Wind Speed 12 mph ()    
Max Wind Speed 22 mph    
Max Gust Speed 28 mph    
Visibility 8.9 miles    
Events      
Averages and records for this station are not official NWS values.
T = Trace of Precipitation, MM = Missing Value Source: Averaged Metar Reports

Daily Weather History Graph

Daily Weather History Graph

Search for Another Location

Airport or City:

Astronomy

Dec. 12, 2011 Rise Set
Actual Time 7:25 AM AST 4:22 PM AST
Civil Twilight 6:52 AM AST 4:55 PM AST
Nautical Twilight 6:15 AM AST 5:31 PM AST
Astronomical Twilight 5:40 AM AST 6:06 PM AST
Moon 6:29 PM AST (12/12) 8:52 AM AST (12/12)
Length of Visible Light 10h 03m
Length of Day
8h 57m
Waning Gibbous, 96% of the Moon is Illuminated
Dec 12
Waning Gibbous
Dec 17
Last Quarter
Dec 24
New
Jan 1
First Quarter
Jan 9
Full

Hourly Weather History & Observations

Time (AST) Temp. Windchill Dew Point Humidity Pressure Visibility Wind Dir Wind Speed Gust Speed Precip Events Conditions
12:00 AM 32.0 °F 23.0 °F 17.6 °F 55% 30.57 in 9.0 mi NW 11.5 mph 18.4 mph N/A   Partly Cloudy
1:00 AM 32.0 °F 22.5 °F 17.6 °F 55% 30.58 in 9.0 mi WNW 12.7 mph - N/A   Partly Cloudy
2:00 AM 31 °F - 18 °F 46% 30.58 in 9 mi WNW 10.4 mph - -  
2:00 AM 32.0 °F 23.6 °F 17.6 °F 55% 30.58 in 9.0 mi WNW 10.4 mph - N/A   Partly Cloudy
4:00 AM 32.0 °F 24.8 °F 19.4 °F 60% 30.58 in 9.0 mi West 8.1 mph - N/A   Partly Cloudy
5:00 AM 32 °F - 21 °F 51% 30.58 in 9 mi West 6.9 mph - -  
5:00 AM 32.0 °F 26.4 °F 21.2 °F 64% 30.58 in 9.0 mi West 5.8 mph - N/A   Partly Cloudy
6:00 AM 32.0 °F 26.4 °F 21.2 °F 64% 30.58 in 9.0 mi West 5.8 mph - N/A   Mostly Cloudy
7:00 AM 33.8 °F 27.7 °F 21.2 °F 60% 30.58 in 9.0 mi West 6.9 mph - N/A   Partly Cloudy
8:00 AM 36 °F - 24 °F 50% 30.60 in 9 mi West 10.4 mph - -  
8:00 AM 35.6 °F 27.1 °F 24.8 °F 65% 30.60 in 9.0 mi WSW 12.7 mph - N/A   Mostly Cloudy
9:00 AM 37.4 °F 29.8 °F 23.0 °F 56% 30.61 in 9.0 mi West 11.5 mph - N/A   Mostly Cloudy
10:00 AM 39.2 °F 32.0 °F 26.6 °F 61% 30.60 in 9.0 mi WSW 11.5 mph 18.4 mph N/A   Mostly Cloudy
11:00 AM 41.0 °F 31.9 °F 26.6 °F 57% 30.58 in 9.0 mi SW 19.6 mph - N/A   Scattered Clouds
12:00 PM 41.0 °F 31.9 °F 28.4 °F 61% 30.56 in 9.0 mi SW 19.6 mph 25.3 mph N/A   Mostly Cloudy
1:00 PM 41.0 °F 31.4 °F 30.2 °F 65% 30.54 in 9.0 mi WSW 21.9 mph - N/A   Overcast
2:00 PM 41 °F - 31 °F 56% 30.53 in 9 mi WSW 21.9 mph - -   Overcast
2:00 PM 41.0 °F 31.9 °F 30.2 °F 65% 30.53 in 9.0 mi WSW 19.6 mph 27.6 mph N/A   Overcast
3:00 PM 41.0 °F 31.9 °F 32.0 °F 70% 30.51 in 9.0 mi WSW 19.6 mph - N/A   Overcast
3:10 PM 42.8 °F 34.0 °F 33.8 °F 70% 30.50 in 9.0 mi SW 20.7 mph - N/A   Overcast
4:00 PM 42.8 °F 34.0 °F 33.8 °F 70% 30.51 in 9.0 mi SW 20.7 mph - N/A   Overcast
5:00 PM 43 °F - 37 °F 71% 30.50 in 9 mi SW 20.7 mph - -   Overcast
5:00 PM 42.8 °F 34.0 °F 37.4 °F 81% 30.50 in 9.0 mi SW 20.7 mph 27.6 mph N/A   Overcast
6:00 PM 44.6 °F 37.8 °F 37.4 °F 76% 30.51 in 9.0 mi WSW 15.0 mph 21.9 mph N/A   Overcast
7:00 PM 44.6 °F 36.6 °F 37.4 °F 76% 30.52 in 9.0 mi WSW 19.6 mph - N/A   Overcast
8:00 PM 45 °F - 37 °F 66% 30.52 in 9 mi WSW 15.0 mph - -   Overcast
8:00 PM 44.6 °F 37.8 °F 37.4 °F 76% 30.52 in 9.0 mi WSW 15.0 mph 20.7 mph N/A   Overcast
9:25 PM 44.6 °F 37.2 °F 39.2 °F 81% 30.51 in 9.0 mi WSW 17.3 mph - N/A   Overcast
10:00 PM 44.6 °F 38.4 °F 37.4 °F 76% 30.51 in 9.0 mi West 12.7 mph 18.4 mph N/A   Overcast
10:01 PM 44.6 °F 38.4 °F 37.4 °F 76% 30.51 in 9.0 mi West 12.7 mph - N/A   Overcast
11:00 PM 46 °F - 39 °F 67% 30.50 in 7 mi West 11.5 mph - -   Overcast
11:00 PM 46.4 °F 40.7 °F 39.2 °F 76% 30.50 in 8.0 mi West 12.7 mph - N/A   Overcast